Regional Weather Roundup
Issued by NWS Cleveland, OH

Home | Current Version | Previous Version | Text Only | Print | Product List | Glossary Off
Versions: 1 2 3 4 5 6 7 8 9 10 11 12 13 14 15 16 17 18 19 20 21 22 23 24 25 26 27 28 29 30 31 32 33 34 35 36 37 38 39 40 41 42 43 44 45 46 47 48 49 50

000
ASUS41 KCLE 280002
RWRCLE
OHIO REGIONAL WEATHER ROUNDUP
NATIONAL WEATHER SERVICE CLEVELAND, OH
800 PM EDT FRI MAR 27 2015

NOTE: "FAIR" INDICATES FEW OR NO CLOUDS BELOW 12,000 FEET WITH NO
SIGNIFICANT WEATHER AND/OR OBSTRUCTIONS TO VISIBILITY.

OHZ001>008-015>018-024>027-034-035-043-044-280100-
   NORTHWEST OHIO

CITY           SKY/WX    TMP DP  RH WIND       PRES   REMARKS
DEFIANCE       PTCLDY    27   6  41 N10       30.07R WCI  17
FINDLAY        PTCLDY    26   7  44 N12       30.04R WCI  16
TOLEDO EXPRESS PTCLDY    24  12  60 N6        30.07R WCI  17
TOLEDO EXEC    CLOUDY    25  11  55 NW10      30.08R WCI  15
LIMA           CLOUDY    28  11  48 N10       30.04R WCI  19
$$

OHZ009>014-019>023-028>033-038-089-280100-
   NORTHEAST OHIO

CITY           SKY/WX    TMP DP  RH WIND       PRES   REMARKS
CLE-HOPKINS    LGT SNOW  22  16  78 N17       30.06R WCI   8
CLE-LAKEFRONT  CLOUDY    23  14  68 N14       30.05R WCI  11
CUY CO. ARPT   FLURRIES  23  16  74 N15       30.04R WCI  10
LORAIN-ELYRIA  LGT SNOW  21  16  81 NE13      30.04S WCI   9
ASHTABULA      LGT SNOW  20  11  68 N13G20    30.02R WCI   7
AKRON-CANTON   CLOUDY    24  15  68 N15       29.97R WCI  11
WOOSTER        LGT SNOW  22  17  81 N12       30.00R WCI  10
MANSFIELD      LGT SNOW  22  19  89 NW10      30.00R FOG     WCI  11
YOUNGSTOWN     FLURRIES  22  14  71 N15       29.97R WCI   9
$$

OHZ042-051>053-060>062-070>072-077>081-280100-
  SOUTHWEST OHIO

CITY           SKY/WX    TMP DP  RH WIND       PRES   REMARKS
CINC-COVINGTON CLOUDY    30  16  56 N13       30.05R WCI  20
CINC-LUNKEN    CLOUDY    31  14  49 N9        30.08R WCI  23
HAMILTON       CLOUDY    31  16  54 NW9       30.08R WCI  23
DAYTON         CLOUDY    29  12  49 N13       30.04S WCI  19
WRIGHT-PAT AFB NOT AVBL
DAYTON GENERAL CLOUDY    29  14  53 N10       30.03R WCI  20
WILMINGTON     CLOUDY    27  13  55 N15       30.03R WCI  15
$$

OHZ036-037-039>041-045>050-054>059-063>069-073>076-082>088-280100-
  CENTRAL AND SOUTHEAST OHIO

CITY           SKY/WX    TMP DP  RH WIND       PRES   REMARKS
COLUMBUS       CLOUDY    27  13  55 NW14      30.02R WCI  16
OSU AIRPORT    MOCLDY    26   7  44 NW14      30.03R WCI  14
BOLTON FIELD   NOT AVBL
RICKENBACK AFB CLOUDY    27  13  54 NW13      30.03R WCI  17
NEWARK         CLOUDY    27  15  61 NW9       30.01R WCI  18
MARION         CLOUDY    23  17  78 NW10      30.03S WCI  12
LANCASTER      CLOUDY    28  13  53 N14       30.02R WCI  17
ZANESVILLE     CLOUDY    27  13  55 NW8       29.99R WCI  19
NEW PHILLY     LGT SNOW  26  20  77 NW9       29.99R VSB 3/4 WCI  17
$$


USA.gov is the U.S. government's official web portal to all federal, state and local government web resources and services.